STARLINK-31901

decayed
NORAD ID: 59793 Int'l Des: 2024-093 Owner: SPXS Country: US Constellation: starlink
LEOCIRCULAR
グループ

STARLINK-31901について

説明を読み込み中...

高度履歴

Altitude vs Time

uPlot chart will show altitude changes over time

軌道要素

1 59793U 24093M 25088.05626269 .02292420 76249-2 14621-2 0 9997
2 59793 42.9821 314.7501 0005891 262.8841 242.5882 16.18485959 50356
Epoch: Mar 29, 2025 • Age: 4161 hours

現在のステータス

Position data unavailable
打ち上げ日 May 18, 2024
運用期間 1.3 years
落下予定日 Mar 29, 2025
タイプ internet

技術仕様

分類 Payload
質量 730.00 kg
乾燥質量 700.00 kg
総質量 730.00 kg
長さ 0.30 m
直径 4.10 m
スパン 29.00 m
形状 Box + pan
製造者 SPXS
バスタイプ Starlink V2M
フェーズステータス Unknown Transfer Status
所有者/国 SPXS/US

大規模コンステレーション

Loading constellations...